Last 48 Hours

Stanford Met Tower

Hourly Data | America/Los_Angeles
as of 5/9/26 1:54 PM PDT
Date & Time Temp (°F) RH (%) Dew Pt (°F) Wind Dir (°) Wind Spd (mph) Wind Gust (mph) Solar Rad (W/m2) Pressure (mb) NowCast AQI Value (AQI) NowCast AQI Status Latest Rain (In) Daily Rain (In) Daily Min Temp (°F) Daily Max Temp (°F)
5/9/26 - 1300 67.5 66 56.8 NNE | 27 6.0 12.4 937 1,016.0 37 Good 0.00 0.00 48.2 68.6
5/9/26 - 1200 67.3 63 55.4 NNE | 16 5.0 12.7 876 1,016.5 33 Good 0.00 0.00 48.2 68.4
5/9/26 - 1100 64.5 64 53.0 SW | 235 2.1 7.3 762 1,017.1 35 Good 0.00 0.00 48.2 67.5
5/9/26 - 1000 59.7 74 52.5 N | 353 1.6 6.0 594 1,017.7 35 Good 0.00 0.00 48.2 62.7
5/9/26 - 0900 55.3 88 52.6 WSW | 244 2.4 5.7 423 1,018.4 32 Good 0.00 0.00 48.2 57.2
5/9/26 - 0800 52.8 93 51.7 SSW | 210 3.4 6.9 125 1,018.7 28 Good 0.00 0.00 48.2 53.8
5/9/26 - 0700 51.8 93 51.0 SSW | 209 3.0 5.9 21 1,018.7 24 Good 0.00 0.00 48.2 52.6
5/9/26 - 0600 51.9 92 50.7 SSW | 203 3.2 6.0 0 1,018.4 20 Good 0.00 0.00 48.2 52.6
5/9/26 - 0500 50.6 92 49.5 SSW | 199 3.3 5.6 0 1,018.6 19 Good 0.00 0.00 48.2 51.7
5/9/26 - 0400 49.2 94 48.4 SSW | 209 3.4 7.1 0 1,018.6 20 Good 0.00 0.00 48.2 50.7
5/9/26 - 0300 49.0 93 48.0 SSW | 198 4.3 6.7 0 1,019.0 20 Good 0.00 0.00 48.2 50.7
5/9/26 - 0200 49.9 91 48.3 SSW | 198 4.9 7.9 0 1,019.1 20 Good 0.00 0.00 49.0 50.7
5/9/26 - 0100 50.3 91 48.8 SSW | 199 4.4 7.4 0 1,019.4 21 Good 0.00 0.00 50.0 70.1
5/9/26 - 0000 51.0 90 49.3 SSW | 200 4.5 7.5 0 1,019.5 22 Good 0.00 0.00 50.3 70.1
5/8/26 - 2300 52.7 87 50.1 S | 191 3.8 6.4 0 1,019.6 22 Good 0.00 0.00 50.3 70.1
5/8/26 - 2200 53.4 87 50.6 SSE | 158 2.6 5.5 0 1,019.7 25 Good 0.00 0.00 50.3 70.1
5/8/26 - 2100 57.3 74 50.0 E | 92 1.7 4.5 1 1,019.0 25 Good 0.00 0.00 50.3 70.1
5/8/26 - 2000 61.5 64 50.1 NE | 37 3.8 8.2 71 1,018.5 25 Good 0.00 0.00 50.3 70.1
5/8/26 - 1900 64.3 61 51.3 NNE | 14 6.0 13.6 260 1,018.0 23 Good 0.00 0.00 50.3 70.1
5/8/26 - 1800 66.8 58 52.6 N | 6 5.9 12.3 464 1,017.7 24 Good 0.00 0.00 50.3 70.1
5/8/26 - 1700 66.8 59 53.1 N | 3 6.8 12.2 650 1,017.9 25 Good 0.00 0.00 50.3 70.1
5/8/26 - 1600 67.8 59 53.9 N | 6 6.1 12.1 811 1,017.8 24 Good 0.00 0.00 50.3 70.1
5/8/26 - 1500 68.0 60 54.5 NNE | 21 5.5 12.7 915 1,018.2 22 Good 0.00 0.00 50.3 70.1
5/8/26 - 1400 65.9 64 54.4 NNE | 12 5.2 15.2 956 1,019.0 21 Good 0.00 0.00 50.3 67.5
5/8/26 - 1300 63.3 69 53.9 N | 354 5.8 13.0 955 1,019.6 21 Good 0.00 0.00 50.3 65.8
5/8/26 - 1200 62.2 70 53.2 N | 359 5.7 10.9 892 1,020.2 18 Good 0.00 0.00 50.3 64.2
5/8/26 - 1100 61.4 67 51.1 NE | 45 4.4 12.1 777 1,020.9 13 Good 0.00 0.00 50.3 63.6
5/8/26 - 1000 58.8 69 49.5 E | 79 2.6 9.2 603 1,021.3 12 Good 0.00 0.00 50.3 61.0
5/8/26 - 0900 55.1 76 48.6 N | 8 2.3 6.6 453 1,021.8 9 Good 0.00 0.00 50.3 57.8
5/8/26 - 0800 52.4 83 48.3 SW | 218 2.0 4.7 171 1,022.0 8 Good 0.00 0.00 50.3 54.5
5/8/26 - 0700 51.0 86 47.8 SW | 226 2.2 4.4 18 1,022.1 9 Good 0.00 0.00 50.3 54.4
5/8/26 - 0600 52.4 84 48.5 SW | 220 1.8 4.2 0 1,021.6 10 Good 0.00 0.00 51.8 54.4
5/8/26 - 0500 52.5 85 49.1 WNW | 302 3.3 7.4 0 1,021.6 8 Good 0.00 0.00 52.4 54.4
5/8/26 - 0400 53.0 84 49.2 WNW | 291 3.7 8.6 0 1,021.4 5 Good 0.00 0.00 52.4 54.4
5/8/26 - 0300 53.3 82 48.8 WNW | 291 2.4 4.7 0 1,021.2 7 Good 0.00 0.00 53.0 54.4
5/8/26 - 0200 53.7 82 49.4 WNW | 300 2.4 4.2 0 1,021.1 8 Good 0.00 0.00 53.2 54.4
5/8/26 - 0100 54.2 82 49.9 WNW | 300 2.7 5.2 0 1,021.3 8 Good 0.00 0.00 52.2 67.9
5/8/26 - 0000 53.6 94 52.8 WNW | 284 1.5 5.1 0 1,021.1 9 Good 0.00 0.00 52.2 67.9
5/7/26 - 2300 52.7 94 51.9 SSE | 148 2.1 5.5 0 1,021.0 9 Good 0.00 0.00 52.2 67.9
5/7/26 - 2200 54.4 90 52.4 S | 175 2.6 4.4 0 1,020.7 10 Good 0.00 0.00 52.8 67.9
5/7/26 - 2100 58.4 78 52.5 E | 101 3.2 5.9 1 1,020.0 11 Good 0.00 0.00 54.3 67.9
5/7/26 - 2000 61.0 71 52.3 NNE | 33 3.7 7.6 70 1,019.1 14 Good 0.00 0.00 54.3 67.9
5/7/26 - 1900 64.1 63 52.2 NNE | 25 5.6 11.8 258 1,018.8 14 Good 0.00 0.00 54.3 67.9
5/7/26 - 1800 66.6 64 54.9 NNE | 29 6.2 12.8 462 1,018.3 15 Good 0.00 0.00 54.3 67.9
5/7/26 - 1700 66.4 66 55.6 NNE | 14 6.6 13.6 647 1,018.2 16 Good 0.00 0.00 54.3 67.6
5/7/26 - 1600 66.4 68 56.5 N | 3 6.3 11.3 800 1,018.2 17 Good 0.00 0.00 54.3 67.6
5/7/26 - 1500 65.3 70 56.3 NNE | 12 7.1 12.9 902 1,018.5 20 Good 0.00 0.00 54.3 66.5
5/7/26 - 1400 64.6 71 55.8 N | 11 6.2 12.0 949 1,019.1 22 Good 0.00 0.00 54.3 66.5
5/7/26 - 1300 64.5 70 55.5 NNE | 13 3.8 10.6 926 1,019.8 22 Good 0.00 0.00 54.3 66.1
Max 68.0 94 56.8 - 7.1 15.2 956 1,022.1 37 - 0.00 0.00 54.3 70.1
Avg 58.3 77 51.7 - 4.0 8.5 342 1,019.4 19 - 0.00 - - -
Min 49.0 58 47.8 - 1.5 4.2 0 1,016.0 5 - 0.00 0.00 48.2 50.7
Total - - - - - - - - - - 0.00 - - -